Regional Weather Roundup
Issued by NWS Green Bay, WI

Home | Current Version | Previous Version | Graphics & Text | Print | Product List | Glossary Off
Versions: 1 2 3 4 5 6 7 8 9 10 11 12 13 14 15 16 17 18 19 20 21 22 23 24 25 26 27 28 29 30 31 32 33 34 35 36 37 38 39 40 41 42 43 44 45 46 47 48 49 50

000
ASUS43 KGRB 181310
RWRGRB

NORTH-CENTRAL AND NORTHEAST WISCONSIN REGIONAL WEATHER ROUNDUP
NATIONAL WEATHER SERVICE GREEN BAY WI
800 AM CDT THU SEP 18 2014

WIZ005-009-010>012-018-019-181400-
NORTH CENTRAL WISCONSIN

CITY           SKY/WX    TMP DP  RH WIND       PRES   REMARKS
IRONWOOD       CLOUDY    39  37  93 E6        30.15S
MANITOWISH WTR CLOUDY    39  39 100 E6        30.15R
ARBOR VITAE    CLOUDY    42  40  89 SE6       30.15R
EAGLE RIVER    CLOUDY    37  37  97 SE8       30.16S
LAND O LAKES   CLOUDY    38  36  91 SE6       30.18R
RHINELANDER    CLOUDY    39  38  96 E8        30.17R FOG
PHILLIPS       CLOUDY    44  42  93 E7        30.14R
ANTIGO         CLOUDY    38  37  95 SE8       30.17S
TOMAHAWK       CLOUDY    44  41  90 SE3       30.16R
MERRILL        CLOUDY    44  43  96 SE6       30.16R
$$

WIZ013-073-181400-
NORTHEAST WISCONSIN

CITY           SKY/WX    TMP DP  RH WIND       PRES   REMARKS
IRON MOUNTAIN  PTSUNNY   42  33  70 N3        30.19R
MARINETTE      PTSUNNY   43  36  75 N8        30.18S
OCONTO         CLOUDY    43  37  78 N5        30.19R
$$

WIZ017-030-035>037-045-181400-
CENTRAL WISCONSIN

CITY           SKY/WX    TMP DP  RH WIND       PRES   REMARKS
MEDFORD        CLOUDY    44  43  97 E7        30.14R FOG
WAUSAU         CLOUDY    42  40  92 SE9       30.15S
MOSINEE        CLOUDY    43  43 100 E10       30.17R
MARSHFIELD     CLOUDY    45  43  93 SE10      30.15R
WISC RAPIDS    CLOUDY    46  43  89 E8        30.17R
STEVENS POINT  CLOUDY    41  39  92 E8        30.17R
WAUPACA        CLOUDY    46  43  90 NE8       30.18S
SHAWANO        CLOUDY    44  37  77 NE12      30.19S
CLINTONVILLE   CLOUDY    43  37  81 E9        30.19R
$$

WIZ038-039-048-051-181400-
FOX VALLEY

CITY           SKY/WX    TMP DP  RH WIND       PRES   REMARKS
NWS GREEN BAY  CLOUDY    45  38  76 N8        30.18S
APPLETON       CLOUDY    45  37  76 NE10      30.18R
OSHKOSH        CLOUDY    48  44  86 NE7       30.17R
FOND DU LAC    CLOUDY    47  43  86 E7        30.17R
$$

WIZ022-050-052-181400-
EAST CENTRAL WISCONSIN

CITY           SKY/WX    TMP DP  RH WIND       PRES   REMARKS
STURGEON BAY   CLOUDY    46  37  71 N9        30.18S
MANITOWOC      CLOUDY    46  41  82 N7        30.17S
SHEBOYGAN      CLOUDY    47  43  86 N12       30.16R
$$

LMZ563-521-522-541>543-181400-
LAKESHORE

STATION/POSITION TIME  TEMP    WIND        PRES    VSBY  WAVE
                       AIR SEA DIR/SP/G                  HT/PER
                 (UTC) (F)     (DEG/KT/KT) (MB)    (MI)  (FT/S)
SHEBOYGAN LKSHOR 1300   47 48  350/ 14/ 16 1021.8R
KEWAUNEE LKSHORE 1300   45     340/  6/  8 1020.6S
TWO RIVERS CG    1200   46 57              1021.2      6   0
NORTHPORT PIER   1300   47      10/ 10/ 12 1022.4R
N MID LAKE BUOY  1300   48 57   40/ 12/ 14 1022.2R         2/ 4
S GREEN BAY BUOY 1300   47     VRB 14/ 19  1022.7R
STURGEON BAY CG  1200   43 52  360/  4     1021.9      6   1
CHAMBERS ISLAND  1300   47      30/  9/ 15 1022.4S
MENOMINEE LKSHOR 1300   44     360/ 12/ 14 1022.6F
$$


USA.gov is the U.S. government's official web portal to all federal, state and local government web resources and services.